Oxnard, CA

7:02 AM PDT on March 25, 2017 (GMT -0700)
Oxnard

Weather History for KOXR - March, 2014

Change the Weather History Date:

Saturday, March 8, 2014

  Actual Average Record
Temperature  
Mean Temperature 65 °F -  
Max Temperature 82 °F 65 °F 88 °F (2004)
Min Temperature 48 °F 47 °F 37 °F (1964)
Growing Degree Days 15 (Base 50)    
Moisture  
Dew Point 41 °F    
Average Humidity 51    
Maximum Humidity 81    
Minimum Humidity 13    
Precipitation  
Precipitation 0.00 in - - ()
Sea Level Pressure  
Sea Level Pressure 30.06 in    
Wind  
Wind Speed 7 mph (North)    
Max Wind Speed 22 mph    
Max Gust Speed 30 mph    
Visibility 10 miles    
Events      
Averages and records for this station are not official NWS values.
T = Trace of Precipitation, MM = Missing Value Source: NWS Daily Summary

Daily Weather History Graph

Daily Weather History Graph

Search for Another Location

Airport or City:

Trip Planner

Search our weather history database for the weather conditions in past years. The results will help you decide how hot, cold, wet, or windy it might be!

Date:

Astronomy

Mar. 08, 2014 Rise Set
Actual Time 6:16 AM PST 5:59 PM PST
Civil Twilight 5:51 AM PST 6:24 PM PST
Nautical Twilight 5:22 AM PST 6:53 PM PST
Astronomical Twilight 4:53 AM PST 7:22 PM PST
Moon 11:18 AM PST (3/8) 12:44 AM PST (3/8)
Length of Visible Light 12h 32m
Length of Day
11h 42m
First Quarter, 53% of the Moon is Illuminated
Mar 8
First Quarter
Mar 16
Full
Mar 23
Last Quarter
Mar 30
New
Apr 7
First Quarter

Hourly Weather History & Observations

Time (PST) Temp. Dew Point Humidity Pressure Visibility Wind Dir Wind Speed Gust Speed Precip Events Conditions
12:51 AM 51.1 °F 45.0 °F 80% 29.99 in 10.0 mi Calm Calm - N/A   Clear
1:51 AM 50.0 °F 43.0 °F 77% 29.97 in 10.0 mi Calm Calm - N/A   Clear
2:51 AM 48.9 °F 43.0 °F 80% 29.97 in - Calm Calm - N/A   Clear
3:51 AM 48.9 °F 42.1 °F 77% 29.99 in 10.0 mi Calm Calm - N/A   Clear
4:51 AM 48.9 °F 41.0 °F 74% 30.01 in 10.0 mi Calm Calm - N/A   Clear
5:51 AM 64.9 °F 30.0 °F 27% 30.02 in 10.0 mi East 12.7 mph - N/A   Clear
6:51 AM 66.0 °F 28.9 °F 25% 30.05 in - ENE 13.8 mph - N/A   Clear
7:51 AM 71.1 °F 27.0 °F 19% 30.07 in 10.0 mi ENE 16.1 mph 26.5 mph N/A   Clear
8:51 AM 73.9 °F 27.0 °F 18% 30.08 in 10.0 mi ENE 20.7 mph 27.6 mph N/A   Clear
9:51 AM 75.9 °F 28.0 °F 17% 30.10 in 10.0 mi ENE 19.6 mph 29.9 mph N/A   Clear
10:51 AM 78.1 °F 27.0 °F 15% 30.09 in 10.0 mi ENE 21.9 mph 28.8 mph N/A   Clear
11:51 AM 81.0 °F 28.0 °F 14% 30.08 in 10.0 mi ENE 19.6 mph 25.3 mph N/A   Clear
12:51 PM 82.9 °F 27.0 °F 13% 30.07 in 10.0 mi ENE 13.8 mph - N/A   Clear
1:51 PM 72.0 °F 46.0 °F 40% 30.07 in 10.0 mi WNW 11.5 mph - N/A   Clear
2:51 PM 72.0 °F 46.0 °F 40% 30.05 in 10.0 mi WNW 13.8 mph - N/A   Clear
3:51 PM 70.0 °F 46.0 °F 42% 30.05 in 10.0 mi WNW 11.5 mph - N/A   Clear
4:51 PM 66.0 °F 51.1 °F 59% 30.06 in 10.0 mi West 12.7 mph - N/A   Clear
5:51 PM 63.0 °F 53.1 °F 70% 30.07 in 10.0 mi WNW 15.0 mph - N/A   Clear
6:51 PM 61.0 °F 53.1 °F 75% 30.09 in 10.0 mi West 10.4 mph - N/A   Clear
7:51 PM 61.0 °F 50.0 °F 67% 30.11 in 10.0 mi Calm Calm - N/A   Clear
8:51 PM 59.0 °F 51.1 °F 75% 30.11 in 10.0 mi WNW 5.8 mph - N/A   Clear
9:51 PM 57.9 °F 52.0 °F 81% 30.12 in 10.0 mi NNW 4.6 mph - N/A   Clear
10:51 PM 57.0 °F 48.9 °F 74% 30.11 in 10.0 mi Calm Calm - N/A   Clear
11:51 PM 55.0 °F 46.9 °F 74% 30.12 in 10.0 mi WNW 3.5 mph - N/A   Clear